Location: Unspecified
(35.6961°N, 0.0000°E)
Time: 02:47:14
(UTC+00:00)

S-56A Canister/Altair - Pass Details

Date: 04 October 2020
Orbit: 632 x 2500 km, 38.9° (Epoch: 20 October)

Event Time Altitude Azimuth Distance (km) Brightness Sun altitude
Rises 18:12:16 0° 291° (WNW) 6,160 13.7 -7.6°
Reaches altitude 10° 18:16:30 10° 289° (WNW) 5,071 13.1 -8.4°
Maximum altitude 18:30:32 65° 212° (SSW) 2,170 9.9 -11.3°
Drops below altitude 10° 18:40:31 10° 134° (SE) 3,712 10.6 -13.3°
Enters shadow 18:41:30 - 132° (SE) 3,985 10.7 -13.5°
